Waarnemingen

Advertentie
Mijn weer
Sveg A, Zweden (2327): temperatuur & dauwpunt: 10.01.2018 10:00:00 - 16.01.2018 10:00:00 (CET)Sveg A, Zweden (2327): windsnelheid & windstoten: 10.01.2018 10:00:00 - 16.01.2018 10:00:00 (CET)Sveg A, Zweden (2327): windrichting: 10.01.2018 10:00:00 - 16.01.2018 10:00:00 (CET)Sveg A, Zweden (2327): luchtdruk: 10.01.2018 10:00:00 - 16.01.2018 10:00:00 (CET)Sveg A, Zweden (2327): zicht: 10.01.2018 10:00:00 - 16.01.2018 10:00:00 (CET)Sveg A, Zweden (2327): neerslag: 10.01.2018 10:00:00 - 16.01.2018 10:00:00 (CET)
Datum & Tijd tt [°C] td [°C] ff [km/u] ff [kn] fx [km/u] fx [kn] dd ppp [hPa] vv [km] rr [mm]
16.01.2018 10:00:00 - - - - - - - - - -
16.01.2018 09:00:00 -3,0 -4,0 26 14 45 24 OZO 986,6 1,4 0,2
16.01.2018 08:00:00 -2,9 -3,9 27 14 47 26 OZO 987,0 2,3 0,2
16.01.2018 07:00:00 -2,9 -3,7 26 14 46 25 OZO 987,6 2,4 0,2
16.01.2018 06:00:00 -3,0 -3,8 19 10 37 20 OZO 988,5 1,9 0,3
16.01.2018 05:00:00 -2,9 -4,0 21 11 39 21 OZO 989,3 2,5 0,2
16.01.2018 04:00:00 -3,0 -4,3 20 11 37 20 OZO 990,7 3,3 0,1
16.01.2018 03:00:00 -3,3 -4,7 19 10 33 18 OZO 992,1 4,8 0,2
16.01.2018 02:00:00 -4,0 -5,4 19 10 38 21 OZO 993,5 2,7 0,2
16.01.2018 01:00:00 -4,6 -6,0 16 9 29 16 OZO 994,8 3,8 0,2
16.01.2018 00:00:00 -5,0 -6,7 15 8 39 21 OZO 996,3 3,8 0,1
15.01.2018 23:00:00 -5,4 -6,9 23 13 46 25 ZO 997,2 3,8 0,0
15.01.2018 22:00:00 -5,7 -7,1 27 15 47 25 ZO 998,4 2,4 0,0
15.01.2018 21:00:00 -5,9 -7,4 26 14 51 28 ZO 999,8 - 0,0
15.01.2018 20:00:00 -6,2 -7,7 25 14 49 26 ZO 1000,9 - 0,0
15.01.2018 19:00:00 -6,4 -8,1 24 13 44 24 ZO 1002,2 12 0,0
15.01.2018 18:00:00 -6,6 -8,3 22 12 35 19 ZO 1003,9 13 0,0
15.01.2018 17:00:00 -6,6 -8,4 14 8 38 20 OZO 1005,4 20 0,0
15.01.2018 16:00:00 -6,4 -8,5 22 12 42 23 ZO 1006,4 12 0,0
15.01.2018 15:00:00 -6,4 -8,7 24 13 46 25 ZO 1007,1 9 0,0
15.01.2018 14:00:00 -6,4 -8,8 25 14 43 23 ZO 1008,3 7 0,0
15.01.2018 13:00:00 -6,3 -8,7 20 11 35 19 ZO 1009,6 10 0,0
15.01.2018 12:00:00 -6,2 -8,8 16 9 35 19 ZZO 1011,3 10 0,0
15.01.2018 11:00:00 -6,2 -8,8 17 9 34 19 ZZO 1012,4 11 0,0
15.01.2018 10:00:00 -6,1 -8,8 18 10 36 19 ZZO 1012,9 21 0,0
15.01.2018 09:00:00 -5,8 -8,9 17 9 36 19 Z 1013,7 18 0,0
15.01.2018 08:00:00 -5,6 -8,7 15 8 38 20 ZZO 1014,0 40 0,0
15.01.2018 07:00:00 -5,4 -8,6 17 9 34 18 ZZO 1014,7 42 0,0
15.01.2018 06:00:00 -5,1 -8,5 16 8 30 16 ZZO 1015,4 46 0,0
15.01.2018 05:00:00 -5,1 -8,2 14 8 28 15 ZO 1016,1 46 0,0
15.01.2018 04:00:00 -5,0 -8,2 15 8 40 21 ZO 1017,4 50 0,0
15.01.2018 03:00:00 -5,0 -8,4 18 10 48 26 ZZO 1018,8 40 0,0
15.01.2018 02:00:00 -5,0 -8,6 19 10 39 21 Z 1020,1 12 0,0
15.01.2018 01:00:00 -4,9 -8,6 19 10 47 26 Z 1021,1 10 0,0
15.01.2018 00:00:00 -4,9 -9,2 19 10 36 19 Z 1021,7 30 0,0
14.01.2018 23:00:00 -5,7 -9,1 14 8 29 15 ZZO 1022,4 50 0,0
14.01.2018 22:00:00 -6,2 -9,6 18 10 28 15 ZZO 1022,8 33 0,0
14.01.2018 21:00:00 -6,3 -10,0 13 7 36 20 ZZW 1023,9 7 0,0
14.01.2018 20:00:00 -6,0 -9,5 15 8 34 18 ZZW 1024,4 20 0,0
14.01.2018 19:00:00 -5,8 -9,2 13 7 31 17 Z 1024,8 29 0,0
14.01.2018 18:00:00 -5,8 -9,7 13 7 34 19 ZZW 1025,8 23 0,0
14.01.2018 17:00:00 -5,8 -9,0 13 7 25 14 ZZW 1026,7 16 0,0
14.01.2018 16:00:00 -5,7 -8,9 10 5 23 13 ZZW 1027,5 19 0,0
14.01.2018 15:00:00 -5,7 -8,6 9 5 25 13 ZZW 1028,1 27 0,0
14.01.2018 14:00:00 -5,5 -8,7 10 5 27 15 Z 1028,6 30 0,0
14.01.2018 13:00:00 -5,6 -8,3 11 6 30 16 ZZW 1029,4 49 0,0
14.01.2018 12:00:00 -5,5 -8,1 9 5 31 17 Z 1030,2 41 0,0
14.01.2018 11:00:00 -5,7 -8,1 9 5 21 12 Z 1030,8 39 0,0
14.01.2018 10:00:00 -5,8 -8,1 9 5 21 11 ZZW 1031,3 45 0,0
14.01.2018 09:00:00 -6,0 -7,7 7 4 15 8 ZZW 1031,5 50 0,0
14.01.2018 08:00:00 -6,3 -7,4 7 4 22 12 ZZW 1031,9 50 0,0
14.01.2018 07:00:00 -6,5 -7,3 9 5 19 10 ZZW 1032,3 46 0,0
14.01.2018 06:00:00 -11,7 -13,0 11 6 28 15 ZW 1033,2 50 0,0
14.01.2018 05:00:00 -15,0 -16,7 1 1 6 4 NNW 1034,0 50 0,0
14.01.2018 04:00:00 -16,6 -18,3 3 2 7 4 WNW 1035,1 50 0,0
14.01.2018 03:00:00 -17,5 -19,4 3 2 8 4 NNW 1035,7 50 0,0
14.01.2018 02:00:00 -18,6 -20,6 4 2 7 4 WNW 1036,5 50 0,0
14.01.2018 01:00:00 -19,4 -21,6 4 2 8 4 NW 1037,0 50 0,0
14.01.2018 00:00:00 -20,2 -22,5 4 2 9 5 WNW 1037,5 50 0,0
13.01.2018 23:00:00 -20,9 -23,2 5 3 10 6 WNW 1038,2 50 0,0
13.01.2018 22:00:00 -21,3 -23,7 7 4 15 8 WNW 1038,4 49 0,0
13.01.2018 21:00:00 -21,1 -23,5 10 5 14 7 WZW 1038,7 50 0,0
13.01.2018 20:00:00 -23,0 -25,5 5 3 8 4 W 1039,3 50 0,0
13.01.2018 19:00:00 -23,6 -26,1 4 2 6 3 WNW 1039,5 50 0,0
13.01.2018 18:00:00 -28,4 -31,3 3 1 6 4 WNW 1040,0 49 0,0
13.01.2018 17:00:00 -29,0 -32,0 2 1 5 3 WNW 1040,2 33 0,0
13.01.2018 16:00:00 -27,7 -30,6 2 1 4 2 W 1040,0 50 0,0
13.01.2018 15:00:00 -26,0 -28,8 3 2 5 3 W 1039,8 50 0,0
13.01.2018 14:00:00 -24,0 -26,6 4 2 6 4 WNW 1040,1 50 0,0
13.01.2018 13:00:00 -23,1 -25,7 5 3 6 4 WNW 1040,3 50 0,0
13.01.2018 12:00:00 -24,7 -27,4 4 2 5 3 WNW 1040,8 21 0,0
13.01.2018 11:00:00 -28,4 -31,3 5 3 6 3 WNW 1041,6 50 0,0
13.01.2018 10:00:00 -30,6 -33,7 2 1 5 3 WNW 1041,8 23 0,0
13.01.2018 09:00:00 -31,2 -34,4 4 2 6 4 WNW 1041,9 47 0,0
13.01.2018 08:00:00 -30,9 -34,1 3 2 6 3 W 1042,2 50 0,0
13.01.2018 07:00:00 -31,2 -34,4 3 2 6 4 WZW 1042,0 50 0,0
13.01.2018 06:00:00 -31,4 -34,6 4 2 6 3 NNW 1042,2 43 0,0
13.01.2018 05:00:00 -30,7 -33,8 3 1 8 4 N 1042,1 50 0,0
13.01.2018 04:00:00 -30,6 -33,7 4 2 6 4 ZO 1041,8 40 0,0
13.01.2018 03:00:00 -30,3 -33,4 2 1 6 4 ZW 1041,5 50 0,0
13.01.2018 02:00:00 -31,0 -34,1 3 2 6 4 WNW 1042,1 50 0,0
13.01.2018 01:00:00 -30,1 -33,1 5 3 8 4 NO 1042,3 50 0,0
13.01.2018 00:00:00 -29,9 -32,9 2 1 4 2 Z 1042,8 50 0,0
12.01.2018 23:00:00 -29,0 -32,0 3 2 8 5 ONO 1042,3 50 0,0
12.01.2018 22:00:00 -28,9 -31,8 4 2 8 4 ZW 1042,2 32 0,0
12.01.2018 21:00:00 -29,6 -32,6 3 2 5 3 W 1042,0 34 0,0
12.01.2018 20:00:00 -29,4 -32,6 1 1 5 3 W 1041,9 50 0,0
12.01.2018 19:00:00 -27,9 -30,8 2 1 7 4 Z 1041,6 50 0,0
12.01.2018 18:00:00 -27,0 -29,8 3 1 5 3 WZW 1041,5 50 0,0
12.01.2018 17:00:00 -25,6 -28,3 2 1 4 2 ZW 1041,0 50 0,0
12.01.2018 16:00:00 -25,8 -28,5 3 2 6 3 WNW 1041,1 50 0,0
12.01.2018 15:00:00 -22,8 -25,2 2 1 4 2 O 1040,8 50 0,0
12.01.2018 14:00:00 -21,8 -24,3 1 0 5 3 WZW 1040,5 50 0,0
12.01.2018 13:00:00 -22,9 -25,5 6 3 6 4 WNW 1040,4 50 0,0
12.01.2018 12:00:00 -24,2 -26,8 3 2 6 3 NW 1040,2 34 0,0
12.01.2018 11:00:00 -27,0 -29,8 1 1 5 3 ONO 1040,4 50 0,0
12.01.2018 10:00:00 -29,6 -32,6 3 2 5 3 NW 1040,3 50 0,0
12.01.2018 09:00:00 -28,8 -31,7 1 1 5 3 ONO 1039,9 50 0,0
12.01.2018 08:00:00 -30,4 -33,5 3 2 8 5 WNW 1040,0 50 0,0
12.01.2018 07:00:00 -31,0 -34,2 4 2 5 3 W 1039,7 50 0,0
12.01.2018 06:00:00 -29,8 -32,8 2 1 5 3 ONO 1039,1 50 0,0
12.01.2018 05:00:00 -30,6 -33,7 1 1 7 4 WZW 1039,2 50 0,0
12.01.2018 04:00:00 -29,9 -32,9 2 1 3 2 ZZO 1038,4 50 0,0
12.01.2018 03:00:00 -29,6 -32,6 4 2 6 4 W 1038,2 50 0,0
12.01.2018 02:00:00 -30,0 -33,0 3 2 5 3 NNW 1037,8 50 0,0
12.01.2018 01:00:00 -28,9 -31,9 3 1 5 3 Z 1037,3 50 0,0
12.01.2018 00:00:00 -28,8 -31,8 2 1 4 2 W 1036,8 43 0,0
11.01.2018 23:00:00 -28,5 -31,4 4 2 6 4 NW 1036,4 50 0,0
11.01.2018 22:00:00 -27,6 -30,4 2 1 4 2 ONO 1035,8 50 0,0
11.01.2018 21:00:00 -28,2 -31,1 2 1 3 2 W 1035,4 50 0,0
11.01.2018 20:00:00 -28,2 -31,2 1 1 5 3 N 1034,8 50 0,0
11.01.2018 19:00:00 -27,0 -29,8 3 2 7 4 WNW 1034,1 50 0,0
11.01.2018 18:00:00 -26,8 -29,6 5 3 7 4 W 1033,9 50 0,0
11.01.2018 17:00:00 -24,5 -27,1 1 1 8 5 NNW 1033,2 50 0,0
11.01.2018 16:00:00 -22,1 -24,3 5 3 9 5 W 1032,7 50 0,0
11.01.2018 15:00:00 -20,9 -23,0 4 2 6 3 W 1032,0 50 0,0
11.01.2018 14:00:00 -20,8 -23,1 5 3 5 3 NW 1031,6 50 0,0
11.01.2018 13:00:00 -19,4 -21,7 1 1 3 2 WNW 1031,5 50 0,0
11.01.2018 12:00:00 -23,3 -25,8 3 2 5 3 NW 1031,5 50 0,0
11.01.2018 11:00:00 -24,1 -26,7 3 1 6 3 NW 1031,6 50 0,0
11.01.2018 10:00:00 -25,0 -27,6 3 1 4 2 O 1031,2 33 0,0
11.01.2018 09:00:00 -26,7 -29,5 3 2 6 3 WNW 1030,8 34 0,0
11.01.2018 08:00:00 -28,1 -31,0 5 3 7 4 WNW 1030,5 50 0,0
11.01.2018 07:00:00 -29,2 -32,2 5 3 9 5 WNW 1030,2 50 0,0
11.01.2018 06:00:00 -29,8 -32,9 8 4 9 5 WNW 1030,1 50 0,0
11.01.2018 05:00:00 -31,0 -34,1 5 3 6 4 WNW 1030,0 50 0,0
11.01.2018 04:00:00 -30,9 -34,0 4 2 9 5 NNW 1029,7 50 0,0
11.01.2018 03:00:00 -30,5 -33,5 2 1 6 4 WZW 1029,6 50 0,0
11.01.2018 02:00:00 -30,3 -33,3 4 2 6 3 W 1029,4 50 0,0
11.01.2018 01:00:00 -29,9 -32,9 3 1 8 4 NW 1029,1 48 0,0
11.01.2018 00:00:00 -29,6 -32,6 6 3 9 5 WZW 1028,9 50 0,0
10.01.2018 23:00:00 -29,9 -32,9 6 3 8 4 WNW 1029,1 50 0,0
10.01.2018 22:00:00 -29,4 -32,4 6 3 8 5 WNW 1029,0 50 0,0
10.01.2018 21:00:00 -27,1 -29,8 1 1 5 3 ZZW 1028,9 50 0,0
10.01.2018 20:00:00 -25,7 -28,3 2 1 10 5 W 1028,2 50 0,0
10.01.2018 19:00:00 -25,9 -28,5 9 5 12 6 W 1028,0 50 0,0
10.01.2018 18:00:00 -26,7 -29,5 6 4 8 5 WNW 1028,1 12 0,0
10.01.2018 17:00:00 -26,1 -28,8 6 4 8 4 WNW 1028,2 50 0,0
10.01.2018 16:00:00 -24,1 -26,7 5 3 8 4 W 1028,0 50 0,0
10.01.2018 15:00:00 -21,1 -23,4 6 4 11 6 W 1027,8 50 0,0
10.01.2018 14:00:00 -20,0 -22,1 7 4 12 6 WZW 1027,7 45 0,0
10.01.2018 13:00:00 -20,9 -23,2 5 3 6 3 NW 1028,1 36 0,0
10.01.2018 12:00:00 -22,5 -24,9 3 2 5 3 WNW 1028,6 47 0,0
10.01.2018 11:00:00 -26,2 -29,1 5 3 5 3 NW 1029,3 50 0,0
10.01.2018 10:00:00 -26,7 -29,5 5 3 8 5 W 1029,2 50 0,0

tt = temperatuur
td = dauwpunt
ff = windsnelheid
fx = windstoten
dd = windrichting
ppp = luchtdruk
vv = zicht
rr = neerslag

Weerstations in de omgeving